Temperature
16 16 16 16 16 16 16 16 16 16 16 16 16 16 16 16 16 15 15 15 15 15 15 15 15 15 15 15 14 14 14 14 14 14 14 14 14 14 14 14 14 14 13
17 17 16 16 16 16 16 16 16 16 16 16 15 15 15 15 15 15 15 15 15 15 15 15 15 15 15 15 14 14 14 14 14 14 14 14 14 14 13 14 14 13 13
17 17 16 16 16 16 16 16 16 16 16 15 15 15 15 15 15 15 15 15 15 15 15 15 15 15 14 14 14 14 14 14 14 14 14 14 13 13 13 13 13 13 13
17 17 16 16 16 16 16 16 16 16 15 15 15 15 15 15 15 15 15 15 15 15 15 15 14 14 14 14 14 14 14 14 14 14 14 13 13 13 13 13 13 13 13
16 16 16 16 16 16 16 16 15 15 15 15 15 15 15 15 15 15 15 15 14 14 14 14 14 14 14 14 14 14 14 14 13 13 13 13 13 13 13 13 13 13 13
16 16 16 16 16 16 16 16 15 15 15 15 15 15 15 15 15 15 14 14 14 14 14 14 14 14 14 14 13 13 13 13 13 13 13 13 13 13 13 13 13 12 12
16 16 16 16 16 15 15 15 15 15 15 15 15 15 15 15 15 14 14 14 14 14 14 14 14 14 14 13 13 13 13 13 13 13 13 13 12 12 12 12 12 12 12
16 15 15 15 15 15 15 15 15 15 15 15 15 15 14 14 14 14 14 14 14 14 14 14 14 13 13 13 13 13 13 13 13 13 13 13 12 12 12 12 12 12 12
15 15 15 15 15 15 15 15 14 14 14 14 14 14 14 14 14 14 14 14 14 13 13 13 13 13 13 13 13 13 13 13 12 12 12 12 12 12 12 12 12 12 11
15 15 15 15 15 14 14 14 14 14 14 14 14 14 14 14 14 14 14 13 13 13 13 13 13 13 13 13 13 13 13 12 12 12 12 12 12 12 11 12 11 11 11
14 14 14 14 14 14 14 14 14 14 14 14 14 14 14 14 14 14 13 13 13 13 13 13 13 13 13 13 13 12 12 12 12 12 12 12 12 11 11 11 11 11 11
14 14 14 14 14 14 14 14 13 13 13 13 13 13 13 13 13 13 13 13 13 13 13 13 13 12 12 12 12 12 12 12 12 12 12 12 12 11 11 11 11 11 10
14 14 14 13 13 13 13 13 13 13 13 13 13 13 13 13 13 13 13 13 13 13 13 12 12 12 12 12 12 12 12 12 12 12 12 12 12 11 11 11 11 11 10
13 13 13 13 13 13 13 13 13 13 13 13 13 13 13 13 13 13 13 13 12 12 12 12 12 12 12 12 12 12 12 12 12 12 12 11 11 11 11 11 11 10 10
13 13 13 13 13 13 13 13 13 13 13 13 12 12 13 13 13 13 12 12 12 12 12 12 12 12 12 12 12 12 12 12 12 12 12 11 11 11 11 11 10 10 10
12 12 12 12 12 12 12 12 12 12 12 12 12 12 12 12 12 12 12 12 12 12 12 12 12 12 12 12 11 11 11 12 12 11 11 11 11 11 11 10 10 10 9
12 12 12 12 12 12 12 12 12 12 12 12 12 12 12 12 12 12 12 12 12 12 12 12 12 11 11 11 11 11 11 11 11 11 11 11 11 11 11 10 10 10 9
12 12 12 12 11 11 11 11 11 11 12 11 12 12 11 12 12 12 12 12 12 12 12 11 11 11 11 11 11 11 11 11 11 11 11 11 10 10 10 10 10 10 9
11 11 11 11 11 11 11 11 11 11 11 11 11 11 11 11 11 11 11 11 11 11 11 11 11 11 11 11 11 11 11 11 11 11 11 10 10 10 10 10 10 9 9
11 11 11 11 11 11 11 11 11 11 11 11 11 11 11 11 11 11 11 11 11 11 11 11 11 11 11 11 10 10 10 10 10 10 10 10 10 10 10 9 9 9 9
10 10 11 10 10 10 10 10 10 10 10 10 11 10 10 11 11 11 11 11 11 11 11 10 10 10 10 10 10 10 10 10 10 10 10 10 9 9 9 9 9 9 8
10 10 10 10 10 10 10 10 10 10 10 10 10 10 10 10 10 10 10 10 10 10 10 10 10 10 10 10 9 9 9 9 9 9 9 9 9 9 9 9 8 8 8
10 10 10 10 10 10 10 10 10 10 10 10 10 10 10 10 10 10 10 10 10 10 10 10 10 9 9 9 9 9 9 9 9 9 9 9 8 8 8 8 8 8 7
9 9 9 9 9 9 9 9 9 9 9 9 10 10 9 9 9 10 10 10 10 10 10 9 9 9 9 9 9 9 9 9 8 8 8 8 8 8 8 7 7 7 7
9 9 9 9 9 9 9 9 9 9 9 9 9 9 9 9 9 9 9 9 9 9 9 9 9 9 9 9 9 8 8 8 8 7 7 8 7 7 7 7 7 6 6
9 9 9 9 8 8 8 8 8 8 8 8 8 8 8 8 9 9 9 9 9 9 9 9 9 9 8 8 8 8 8 8 8 7 7 7 7 7 7 6 6 6 6
Wind_Speed
5 9 14 14 14 14 14 14 14 14 14 14 15 15 15 15 15 15 14 14 14 14 13 13 13 14 14 14 13 13 13 13 13 13 13 13 13 13 13 13 12 11 12
8 11 15 15 14 14 14 14 14 15 14 14 14 14 14 15 15 14 14 13 13 13 12 13 12 12 13 13 13 13 12 12 13 13 12 12 12 12 12 12 12 11 12
10 12 15 15 14 15 14 14 15 15 14 14 14 14 14 14 14 14 13 13 12 12 11 12 11 11 11 11 12 12 12 12 12 13 12 10 11 12 13 12 12 12 11
10 12 14 15 14 15 15 15 15 14 14 14 14 13 13 13 13 13 13 12 12 11 11 11 11 10 10 10 11 11 11 12 12 12 10 10 9 11 12 12 11 11 11
9 10 13 16 15 15 15 15 15 14 14 14 14 13 13 13 13 12 12 12 11 10 10 10 10 9 9 9 10 10 11 12 12 11 10 9 8 10 11 10 10 10 10
7 9 13 16 15 15 15 15 15 14 14 14 14 13 13 12 12 12 11 11 10 10 9 9 9 9 9 9 10 10 10 11 10 10 9 8 7 9 9 9 9 9 9
7 8 12 15 15 15 15 15 15 15 14 14 14 13 13 12 12 12 11 10 10 10 9 9 8 8 8 8 9 9 10 10 10 9 7 7 7 8 8 8 8 8 8
8 8 10 13 14 15 15 14 14 15 14 14 14 13 13 12 12 11 11 11 10 10 9 9 8 7 7 7 8 8 8 8 8 7 6 6 7 7 8 8 8 7 7
7 7 7 10 12 13 15 14 14 14 14 14 14 13 12 12 11 11 10 10 10 9 9 8 7 7 6 6 7 7 7 7 7 6 5 5 6 6 7 7 6 6 6
6 6 7 8 9 10 12 14 13 14 14 14 14 13 12 11 11 10 10 10 9 8 8 8 7 5 5 6 6 6 6 6 7 6 5 5 5 5 6 6 5 5 5
5 5 6 7 8 9 10 11 12 13 14 14 13 13 12 10 10 9 10 10 9 8 7 7 6 5 5 5 5 5 5 5 6 5 5 5 5 5 5 5 4 4 4
6 6 6 7 7 8 8 8 10 10 11 11 11 12 10 9 8 8 9 9 8 7 6 6 5 4 4 4 4 5 4 4 4 4 4 4 4 4 3 3 3 3 3
7 6 6 7 8 7 6 7 6 7 9 10 11 11 10 9 7 7 7 7 7 6 5 4 5 4 3 3 4 4 4 4 4 3 3 4 4 3 2 2 2 1 1
6 6 6 6 6 7 7 6 7 6 7 7 9 10 10 7 6 6 6 6 6 5 4 3 4 4 3 3 3 4 4 4 3 3 3 4 3 2 2 1 1 1 1
6 6 6 6 7 6 6 6 6 6 7 8 9 10 10 7 6 6 5 6 6 6 5 4 4 3 2 2 3 3 3 3 3 2 3 3 3 2 1 1 0 1 1
7 7 6 7 7 6 6 5 5 6 7 8 8 9 9 9 8 7 5 5 6 6 6 5 4 4 3 3 2 3 3 3 3 2 2 2 2 2 2 1 1 1 2
8 8 7 7 6 7 6 6 5 6 7 7 8 10 9 9 9 8 6 5 6 7 6 5 4 4 2 2 2 2 3 3 3 3 3 2 2 2 1 1 1 2 2
8 8 8 7 7 7 6 5 5 6 7 6 8 9 10 9 9 8 6 5 7 6 5 4 3 2 2 1 1 1 1 2 2 3 3 3 2 2 1 2 2 2 2
9 9 9 8 8 8 6 5 5 6 6 7 7 8 9 10 10 8 6 6 7 5 4 4 2 2 2 1 2 2 1 1 2 3 2 3 4 2 1 1 2 2 2
9 9 9 8 8 8 6 4 3 4 4 5 6 7 9 9 10 8 6 7 7 4 3 3 3 2 2 2 1 1 1 2 1 2 3 3 3 3 2 1 1 2 2
7 8 9 9 8 7 6 6 5 4 4 4 5 7 9 9 10 9 6 7 6 5 5 5 4 3 2 2 1 1 2 1 2 2 2 2 2 2 2 1 1 1 2
8 8 8 9 9 8 7 6 4 4 3 4 5 6 8 9 9 9 8 6 6 5 5 5 4 3 2 2 2 1 0 2 2 2 1 2 1 1 1 1 1 0 1
7 8 8 8 9 8 7 5 4 2 2 2 4 5 6 9 10 9 9 7 7 6 6 6 6 6 4 2 2 3 3 3 2 2 2 2 2 1 1 1 1 0 1
8 7 7 8 7 8 8 8 8 7 6 6 5 5 5 8 9 9 9 8 7 6 7 7 6 5 5 4 2 2 2 2 3 2 2 2 2 2 1 1 1 1 1
6 6 6 7 7 6 7 8 8 7 5 4 4 5 5 5 7 8 9 8 7 6 7 7 6 5 5 4 4 3 2 1 2 3 3 2 2 2 2 2 2 1 2
5 5 5 6 6 6 6 7 8 8 7 6 7 7 5 3 4 6 7 7 6 5 6 6 6 6 5 5 4 4 3 3 3 3 3 3 3 3 2 2 2 1 1
Wind_Direction
164 164 155 149 142 136 131 127 123 118 115 112 109 107 105 104 104 105 104 104 105 104 102 99 97 95 96 96 95 94 91 89 87 87 86 84 84 82 81 79 76 72 76
158 158 155 151 145 140 134 130 126 122 119 116 113 111 108 107 104 104 105 104 104 104 102 102 99 97 96 98 96 91 91 90 89 89 85 81 83 83 83 80 77 75 77
147 154 154 151 148 143 138 134 131 128 125 121 118 115 112 110 108 104 104 104 103 103 102 103 101 98 96 97 98 93 91 90 90 90 82 73 80 84 84 82 76 74 74
146 152 156 152 149 146 142 139 136 134 130 127 124 121 118 115 113 111 105 106 106 104 102 102 102 101 100 98 97 96 92 91 91 86 74 69 76 82 82 81 77 74 72
139 149 158 154 151 148 146 143 140 138 135 132 129 125 123 120 117 114 112 108 109 108 105 103 103 103 101 99 95 95 94 95 92 83 73 71 74 80 82 81 78 75 74
138 148 157 156 153 151 149 147 144 142 139 137 134 131 129 125 121 117 114 112 109 111 111 108 105 103 101 99 96 93 96 98 94 84 77 76 77 82 84 83 80 79 77
141 149 155 156 157 154 151 150 148 145 144 141 138 137 134 129 125 123 118 117 113 110 113 114 110 106 102 99 97 98 99 101 95 87 80 82 85 85 85 85 81 80 76
143 144 155 156 158 158 153 152 152 149 147 144 142 140 138 135 132 128 126 120 118 111 112 114 110 105 102 96 93 96 103 102 98 90 89 92 93 90 89 86 84 79 75
135 138 145 152 155 159 158 156 155 155 151 149 146 144 142 140 137 135 132 127 122 119 116 117 116 109 104 101 93 87 99 100 92 97 103 96 98 98 94 89 85 81 76
136 142 145 148 152 153 157 159 158 159 156 152 150 146 143 142 143 142 138 134 130 125 125 119 116 117 111 107 98 92 101 101 92 102 108 108 110 107 98 93 88 81 76
149 155 154 152 152 152 154 158 158 159 159 154 152 149 144 141 144 147 146 141 136 134 132 129 119 114 114 110 104 102 98 100 102 106 114 118 122 116 105 96 90 80 70
176 175 169 161 157 156 159 155 157 159 158 155 154 151 148 145 149 149 151 148 144 141 140 137 127 106 105 100 103 105 103 104 106 114 126 133 136 130 115 103 95 82 66
182 180 177 170 162 160 161 158 157 157 155 155 157 158 153 149 149 149 148 148 144 141 138 138 120 106 106 107 105 107 115 117 122 128 138 147 152 153 141 124 106 87 58
188 186 180 172 168 167 164 169 164 163 162 162 165 164 157 154 154 157 157 152 150 149 142 137 125 116 112 116 116 109 110 123 128 135 143 152 157 170 163 156 125 74 29
194 194 185 177 173 172 165 171 170 174 172 169 168 169 169 164 165 167 166 163 164 162 155 146 138 133 130 125 117 112 115 125 141 132 138 149 164 187 200 215 277 313 323
199 194 189 178 171 168 171 177 176 179 178 174 172 175 175 173 170 168 168 169 170 169 163 157 153 148 147 141 131 129 132 130 139 136 139 154 180 195 226 253 291 320 326
202 194 189 185 174 172 173 184 181 180 180 181 179 178 177 176 174 171 171 174 174 169 160 149 142 136 140 143 150 146 139 143 146 151 156 152 170 192 216 242 284 313 325
200 194 192 187 181 177 175 177 183 184 186 187 184 181 182 179 177 173 173 179 173 163 159 157 153 155 157 169 188 199 153 150 161 163 163 165 160 174 206 234 261 290 311
201 195 192 186 183 180 175 175 182 186 192 188 184 183 184 182 179 177 177 175 168 159 162 168 164 168 168 183 204 206 203 205 201 174 169 168 165 169 174 224 247 273 299
202 196 191 187 184 179 172 168 173 182 198 188 185 187 183 182 180 177 178 173 167 165 174 172 168 173 175 183 200 233 246 237 203 188 191 171 170 181 190 231 267 275 285
197 192 190 187 187 178 175 176 181 189 192 196 190 190 185 184 184 180 181 176 175 180 185 176 168 166 171 154 108 345 319 275 224 211 184 169 178 187 189 199 227 270 300
198 195 191 189 189 189 186 182 181 179 189 199 187 192 194 189 186 187 182 184 183 179 179 180 169 170 186 171 154 149 292 306 271 237 216 195 197 169 181 199 176 226 315
202 199 197 195 192 192 182 169 161 151 156 193 188 195 199 195 192 190 189 186 187 185 188 191 185 182 192 212 192 171 176 216 246 270 233 210 202 206 208 162 168 242 283
207 202 194 194 193 192 181 179 181 189 195 205 192 192 199 198 197 192 187 188 188 190 192 195 196 193 183 201 215 218 200 169 180 239 270 244 217 214 230 249 241 271 312
200 197 194 189 191 190 187 187 191 199 198 196 185 184 198 203 198 193 187 184 189 193 194 194 195 192 192 199 202 199 193 193 192 203 239 258 259 232 230 235 226 244 300
189 191 189 187 192 190 188 190 195 195 190 190 193 188 191 197 198 194 187 181 183 186 196 198 194 190 196 198 203 198 189 188 195 201 221 237 253 250 238 239 229 234 290
Height
1515 1517 1519 1520 1522 1523 1524 1524 1525 1526 1527 1528 1528 1529 1529 1530 1530 1531 1531 1531 1532 1532 1532 1532 1532 1532 1532 1532 1532 1532 1533 1533 1533 1533 1533 1533 1532 1532 1532 1532 1531 1531 1531
1514 1516 1518 1520 1521 1522 1523 1524 1525 1526 1527 1528 1529 1529 1530 1530 1531 1531 1531 1532 1532 1533 1533 1533 1533 1533 1533 1533 1533 1533 1533 1534 1534 1534 1534 1534 1534 1533 1533 1533 1532 1532 1532
1513 1515 1517 1519 1520 1522 1523 1524 1525 1526 1527 1528 1529 1529 1530 1531 1531 1531 1532 1532 1533 1533 1533 1533 1533 1534 1534 1534 1534 1534 1534 1534 1535 1535 1535 1535 1534 1534 1534 1533 1533 1533 1532
1513 1515 1516 1518 1520 1521 1522 1524 1525 1525 1526 1527 1528 1529 1530 1531 1531 1532 1532 1532 1533 1533 1533 1534 1534 1534 1534 1534 1534 1534 1535 1535 1535 1535 1535 1535 1535 1535 1535 1534 1534 1533 1533
1512 1514 1516 1518 1519 1520 1522 1523 1524 1525 1526 1527 1528 1529 1530 1531 1531 1532 1532 1532 1533 1533 1534 1534 1534 1534 1535 1535 1535 1535 1535 1536 1536 1536 1536 1536 1536 1536 1535 1535 1534 1534 1533
1511 1513 1515 1517 1518 1520 1521 1522 1523 1524 1525 1526 1527 1529 1529 1530 1531 1531 1532 1532 1533 1533 1534 1534 1534 1535 1535 1535 1535 1535 1536 1536 1536 1536 1536 1536 1536 1536 1535 1535 1534 1534 1533
1510 1512 1514 1516 1518 1519 1520 1521 1522 1524 1525 1525 1527 1528 1529 1530 1530 1531 1532 1532 1533 1533 1533 1534 1534 1535 1535 1535 1535 1536 1536 1536 1536 1536 1536 1536 1536 1536 1535 1535 1534 1534 1533
1509 1511 1513 1515 1516 1518 1519 1520 1522 1523 1524 1524 1526 1527 1528 1529 1530 1530 1531 1532 1532 1533 1533 1534 1534 1535 1535 1535 1535 1535 1536 1536 1536 1536 1536 1536 1536 1536 1535 1535 1534 1533 1533
1509 1510 1512 1513 1515 1517 1518 1519 1520 1522 1523 1524 1525 1526 1527 1528 1529 1530 1530 1531 1532 1532 1533 1533 1534 1534 1535 1535 1535 1535 1536 1536 1536 1536 1536 1536 1536 1535 1535 1534 1534 1533 1532
1507 1509 1510 1512 1513 1515 1516 1518 1519 1521 1522 1523 1524 1525 1526 1527 1528 1529 1530 1530 1531 1532 1532 1533 1533 1534 1534 1534 1534 1535 1535 1536 1535 1535 1535 1535 1535 1535 1534 1534 1533 1533 1532
1505 1507 1508 1509 1511 1513 1514 1516 1517 1519 1520 1521 1523 1524 1525 1526 1527 1528 1529 1529 1530 1531 1531 1532 1533 1533 1533 1534 1534 1534 1534 1535 1535 1535 1534 1534 1534 1534 1534 1533 1533 1532 1531
1501 1503 1506 1507 1509 1510 1512 1514 1515 1517 1518 1520 1521 1522 1523 1524 1526 1527 1528 1528 1529 1530 1531 1531 1532 1532 1533 1533 1533 1533 1533 1534 1534 1534 1534 1534 1534 1534 1533 1532 1532 1531 1531
1499 1500 1502 1504 1506 1508 1510 1511 1513 1514 1516 1517 1519 1521 1522 1523 1524 1525 1526 1527 1528 1529 1529 1530 1531 1531 1531 1532 1532 1532 1532 1533 1533 1533 1533 1533 1533 1533 1532 1532 1531 1530 1529
1496 1497 1499 1501 1503 1505 1507 1509 1510 1512 1513 1515 1517 1518 1520 1521 1522 1523 1525 1525 1526 1527 1528 1529 1529 1530 1530 1531 1531 1531 1531 1531 1531 1532 1532 1532 1532 1532 1531 1531 1530 1529 1528
1492 1494 1496 1498 1500 1503 1504 1506 1508 1510 1511 1513 1514 1516 1518 1519 1520 1522 1523 1524 1525 1526 1526 1527 1528 1528 1529 1529 1529 1530 1530 1530 1530 1530 1530 1530 1530 1530 1530 1529 1528 1527 1527
1489 1491 1493 1495 1497 1499 1501 1503 1505 1507 1508 1510 1512 1514 1516 1517 1518 1519 1521 1522 1523 1524 1525 1525 1526 1527 1527 1528 1528 1528 1528 1528 1528 1529 1529 1529 1529 1528 1528 1527 1527 1526 1525
1485 1487 1490 1492 1494 1496 1498 1500 1502 1504 1506 1507 1509 1511 1513 1514 1516 1517 1518 1519 1521 1522 1523 1523 1524 1525 1525 1526 1526 1526 1526 1526 1527 1527 1527 1527 1527 1526 1526 1525 1525 1524 1523
1482 1483 1486 1488 1490 1492 1494 1497 1499 1501 1503 1504 1506 1508 1510 1511 1513 1514 1516 1517 1518 1519 1520 1521 1521 1522 1522 1523 1523 1524 1524 1524 1524 1525 1525 1524 1524 1524 1524 1523 1523 1522 1521
1478 1479 1481 1483 1486 1488 1490 1493 1495 1497 1499 1501 1502 1504 1506 1508 1509 1511 1512 1514 1515 1516 1517 1518 1519 1519 1520 1520 1521 1521 1521 1522 1522 1522 1522 1522 1522 1521 1521 1521 1520 1519 1518
1473 1475 1477 1479 1481 1484 1486 1489 1491 1493 1495 1497 1498 1500 1502 1504 1506 1508 1509 1510 1512 1513 1514 1515 1516 1517 1517 1518 1518 1518 1519 1519 1519 1519 1519 1519 1519 1519 1518 1518 1517 1516 1515
1469 1470 1472 1474 1476 1479 1481 1483 1486 1488 1490 1492 1495 1497 1499 1500 1502 1504 1505 1506 1508 1509 1510 1511 1512 1513 1514 1515 1515 1515 1515 1516 1516 1516 1516 1516 1516 1515 1515 1514 1514 1513 1512
1463 1465 1467 1469 1472 1474 1476 1479 1482 1484 1486 1488 1491 1493 1495 1496 1498 1500 1501 1502 1504 1505 1506 1508 1509 1510 1511 1512 1512 1512 1512 1513 1512 1513 1513 1513 1513 1512 1512 1511 1511 1510 1509
1458 1460 1462 1465 1467 1469 1472 1475 1477 1479 1481 1483 1485 1488 1490 1492 1494 1495 1497 1498 1499 1501 1502 1503 1505 1506 1506 1508 1509 1510 1509 1508 1509 1509 1509 1509 1509 1509 1508 1508 1507 1506 1505
1453 1456 1458 1461 1463 1465 1467 1470 1472 1473 1475 1478 1480 1483 1486 1488 1489 1491 1492 1494 1494 1496 1497 1499 1500 1502 1503 1503 1505 1505 1506 1505 1506 1505 1505 1505 1505 1505 1505 1504 1504 1503 1502
1450 1452 1455 1457 1459 1461 1463 1465 1467 1470 1472 1474 1477 1479 1481 1483 1485 1486 1488 1489 1491 1492 1493 1495 1496 1497 1499 1499 1500 1501 1501 1502 1502 1502 1500 1500 1501 1501 1500 1500 1499 1499 1498
1446 1449 1451 1453 1455 1457 1459 1461 1463 1465 1467 1469 1471 1473 1476 1478 1480 1482 1483 1485 1486 1488 1489 1490 1491 1492 1494 1495 1496 1496 1497 1497 1497 1498 1496 1495 1496 1496 1496 1496 1495 1494 1494